Temperature
12 13 13 13 13 13 13 14 14 14 14 16 16 16 16 16 17 17 17 17 17 17 17 17 17 17 17 16 16 16 16 16 16 16 16 15 15 15
12 12 12 13 13 13 13 13 13 13 14 15 15 16 16 16 16 16 17 17 17 17 17 17 17 17 17 16 16 16 16 16 16 15 15 15 15 15
12 12 12 12 13 13 13 13 13 13 13 14 15 15 15 16 16 16 16 16 16 17 16 17 17 17 16 16 16 16 16 16 15 15 15 15 15 15
12 12 12 12 12 12 13 13 13 13 13 14 14 15 15 15 15 15 16 16 16 16 16 16 16 16 16 16 16 16 16 15 15 15 15 15 15 15
11 12 12 12 12 12 12 13 13 13 13 13 14 14 14 15 15 15 15 15 15 16 16 16 16 16 16 16 16 16 15 15 15 15 15 15 15 15
11 11 11 11 12 12 12 12 12 12 13 13 13 14 14 14 14 15 15 15 15 15 15 15 16 15 15 15 15 15 15 15 15 15 15 15 14 14
11 11 11 11 11 11 12 12 12 12 12 13 13 13 14 14 14 14 14 15 15 15 15 15 15 15 15 15 15 15 15 15 15 15 15 14 14 14
11 11 11 11 11 11 11 12 12 12 12 12 13 13 13 14 14 14 14 14 14 14 14 15 15 15 15 15 15 15 15 15 15 14 14 14 14 14
11 11 11 11 11 11 12 12 12 12 12 12 12 13 13 13 13 13 13 14 14 14 14 14 14 14 14 15 15 15 15 14 14 14 14 14 14 13
11 11 11 11 11 11 12 12 12 12 12 12 12 13 13 13 13 13 13 13 13 13 13 13 14 14 14 14 14 14 14 14 14 14 14 14 13 13
11 11 11 11 11 11 11 12 12 12 12 12 12 12 13 13 13 13 13 13 13 13 13 13 13 13 14 14 14 14 14 14 14 14 13 13 13 13
11 11 11 11 11 11 11 11 12 12 12 12 12 12 12 13 13 12 13 12 12 13 13 13 13 13 13 13 13 13 13 13 13 13 13 13 13 12
11 11 11 11 11 11 11 11 11 12 12 12 12 12 12 12 12 12 12 12 12 12 12 13 13 13 12 13 13 13 13 13 13 13 13 12 12 12
12 11 11 11 11 11 11 11 11 11 11 12 12 12 12 12 12 12 12 12 12 12 12 12 12 12 12 12 12 12 12 13 12 12 12 12 12 12
12 11 11 11 11 11 11 11 11 11 11 11 12 12 12 12 12 12 12 12 12 12 12 12 12 12 12 12 12 12 12 12 12 12 12 12 12 12
12 12 11 11 11 11 11 11 11 11 11 11 11 11 12 12 12 12 12 12 11 11 12 12 11 12 12 12 12 12 12 12 12 11 12 11 11 11
12 12 12 11 11 11 11 11 11 11 11 11 11 11 11 11 11 11 11 11 11 11 11 11 11 11 11 11 11 11 12 11 11 11 11 11 11 11
12 12 11 11 11 11 11 11 11 11 11 11 11 11 11 11 11 11 11 11 11 11 11 11 11 11 11 11 11 11 11 11 11 11 11 11 11 11
12 11 11 11 11 11 11 11 11 11 11 11 11 11 11 11 11 11 11 11 11 11 11 11 11 11 11 11 11 11 11 11 11 10 10 11 11 11
11 11 11 11 11 11 11 11 11 11 11 11 11 11 11 11 11 11 11 11 11 11 11 11 11 11 11 11 11 11 11 11 11 10 10 10 10 10
11 11 10 10 10 10 10 10 10 10 10 10 10 11 11 11 11 11 11 11 11 11 11 11 11 11 11 10 10 10 10 10 10 10 10 10 10 9
10 10 10 10 10 10 10 10 10 10 10 10 10 10 10 10 10 10 10 10 11 11 11 11 11 10 10 10 10 10 10 10 10 10 10 10 10 10
8 9 9 9 9 9 10 10 9 9 10 10 10 10 10 10 10 10 10 10 10 10 11 10 10 10 10 10 10 10 10 10 10 10 10 10 9 9
Wind_Speed
3 4 3 3 3 4 4 4 4 4 4 4 4 3 4 7 11 13 14 19 24 25 26 26 26 25 25 25 24 23 22 21 20 20 19 18 17 16
3 4 3 3 3 4 4 4 5 5 5 3 4 3 3 4 8 11 13 17 21 23 25 25 26 26 25 25 24 23 22 22 21 21 20 19 18 17
4 4 4 4 3 4 4 4 5 5 7 5 3 3 4 4 4 6 10 11 14 21 23 25 25 25 25 25 25 24 23 23 22 22 21 20 20 18
5 5 5 4 3 3 3 4 4 5 6 6 4 4 5 5 5 6 6 9 10 17 22 24 25 25 25 24 24 24 24 24 23 23 22 22 21 20
5 5 5 4 4 3 3 4 4 4 5 5 5 3 3 3 4 5 5 5 7 12 18 21 23 24 24 24 24 25 25 25 24 24 24 23 22 21
5 5 5 5 5 5 4 4 4 4 4 4 4 4 3 3 3 4 4 5 6 7 10 14 18 22 23 24 24 25 25 25 25 25 24 24 23 22
6 6 6 6 7 5 4 4 4 4 4 4 5 4 3 3 4 4 5 4 5 5 6 7 9 10 14 20 23 24 25 25 25 25 25 25 24 23
7 7 7 6 7 7 8 7 5 5 5 5 5 6 6 5 4 4 5 4 4 4 6 7 7 9 9 12 19 23 25 25 25 26 25 25 25 24
6 6 6 5 6 4 7 7 7 8 8 6 7 8 6 6 6 6 6 5 5 4 5 5 6 8 7 12 19 23 25 25 25 26 25 25 25 24
5 5 5 6 6 6 5 5 5 6 6 6 7 8 7 7 7 7 6 4 2 2 4 5 5 5 5 7 16 21 23 24 25 26 26 25 25 25
6 5 5 5 9 8 5 6 7 6 7 8 9 9 10 10 8 5 5 5 4 4 4 4 3 3 3 5 9 17 20 22 23 24 25 25 25 23
5 5 7 7 9 8 5 5 7 7 6 6 6 6 6 7 9 9 7 7 4 4 5 5 4 4 3 3 5 8 12 16 21 22 23 24 25 18
4 4 5 10 11 11 8 6 9 8 6 6 6 5 4 4 5 6 6 7 6 5 5 5 4 4 3 2 3 5 7 7 11 14 20 23 25 19
5 5 6 10 12 12 8 8 10 8 5 5 5 4 4 4 5 5 6 6 6 6 7 6 4 6 5 4 3 4 5 6 7 8 10 17 20 21
5 7 9 11 12 9 8 10 7 4 4 4 4 4 3 4 3 3 3 4 4 5 6 6 5 6 5 5 4 4 4 5 7 7 8 9 10 11
5 6 9 10 8 8 7 6 4 4 4 4 4 3 2 2 2 2 3 3 3 3 4 6 7 8 6 5 6 6 6 7 8 8 8 7 8 11
3 3 3 4 5 5 5 4 4 3 3 3 4 3 3 3 3 2 3 3 4 4 4 4 4 5 5 6 6 7 7 5 7 9 8 8 8 9
1 3 4 5 5 6 6 5 4 4 4 4 4 4 4 4 3 3 3 4 5 5 5 4 4 3 2 2 5 7 8 7 7 9 7 8 8 8
1 4 5 5 6 6 6 5 5 5 4 4 4 4 4 4 4 4 4 4 5 5 5 5 6 6 7 6 4 6 8 7 8 7 7 6 8 9
2 4 6 6 6 6 6 5 6 5 4 4 4 4 4 4 4 4 4 5 4 4 4 5 6 7 7 6 4 4 8 8 8 9 7 3 2 4
5 5 6 6 6 6 6 6 6 5 5 5 5 5 5 5 5 5 5 6 5 5 6 7 6 6 3 4 3 2 3 7 8 7 8 6 4 4
7 7 7 7 7 7 7 6 6 5 5 5 5 5 5 5 6 7 6 6 6 6 6 4 4 5 5 6 5 5 4 4 4 7 10 10 7 8
8 8 8 8 8 8 7 7 7 6 6 6 6 6 5 6 6 6 7 7 6 6 5 5 4 4 5 5 5 5 6 6 5 4 4 6 8 8
Wind_Direction
294 283 264 250 235 224 214 204 209 242 258 243 234 229 218 217 215 211 214 214 210 210 210 209 208 208 208 208 208 208 206 206 203 200 200 200 198 195
300 299 288 268 254 237 224 218 210 218 245 248 234 242 244 242 223 215 215 214 212 211 212 211 210 208 207 207 206 205 204 204 202 200 199 199 198 196
317 309 295 283 266 252 236 222 216 214 242 258 240 238 228 239 237 225 219 212 214 214 214 214 211 209 208 207 205 203 203 202 200 199 199 198 197 194
310 311 303 300 283 261 242 237 229 221 227 248 249 232 229 229 225 223 222 216 212 215 214 215 213 209 207 207 205 203 201 200 199 198 198 198 196 193
306 303 299 301 292 279 258 244 240 239 226 234 247 233 233 225 223 228 224 220 216 218 215 216 214 210 207 206 205 203 201 199 198 197 197 196 195 193
303 298 294 284 275 274 266 251 243 241 236 238 246 243 236 224 208 217 226 218 220 214 212 211 213 211 208 206 205 203 201 199 198 197 196 194 193 192
307 303 298 294 287 277 266 253 241 241 240 241 245 244 237 217 217 208 223 221 219 207 204 205 203 209 209 210 208 205 202 199 197 196 195 193 191 191
302 304 303 297 305 308 301 289 260 238 234 236 242 241 240 227 221 216 217 216 228 200 199 210 198 208 208 205 206 204 201 199 197 196 194 192 190 189
294 300 306 310 315 303 302 303 294 275 249 231 239 243 238 224 213 219 219 213 219 194 186 212 200 211 207 205 202 201 201 199 197 195 193 192 190 188
293 294 294 300 302 301 295 293 286 279 266 250 240 246 242 230 218 219 215 216 231 214 187 210 199 207 203 201 202 201 200 199 197 195 194 191 189 187
299 300 298 294 301 308 302 298 298 291 275 265 256 252 248 242 221 207 200 203 223 217 193 197 192 193 202 211 204 200 199 197 194 193 192 189 186 184
299 302 304 304 307 309 294 290 293 292 290 292 282 269 255 245 223 212 206 207 206 211 192 184 183 175 195 209 205 198 198 196 192 190 188 185 180 180
285 295 300 309 311 309 301 275 271 280 280 278 277 267 252 236 226 219 212 208 211 219 188 175 180 179 182 187 197 198 192 192 193 192 189 183 180 179
261 274 286 304 307 307 303 289 288 288 275 274 272 265 253 242 230 217 215 218 222 219 191 181 185 184 180 184 194 191 192 189 186 188 187 182 181 180
252 268 286 300 309 305 300 304 304 288 276 269 267 263 252 240 225 207 206 213 224 213 195 197 192 187 189 192 185 180 184 191 185 179 179 180 183 178
268 285 298 302 301 292 297 303 294 280 275 268 268 269 260 241 232 221 218 208 217 222 207 202 200 192 199 192 186 187 181 180 183 182 176 175 178 181
264 297 306 313 317 313 305 297 292 292 282 270 267 267 263 260 252 227 217 213 220 216 209 198 199 199 200 190 194 195 185 182 179 177 175 179 184 185
220 283 295 296 293 295 298 299 290 282 275 272 266 256 253 249 251 237 222 225 228 220 211 198 184 183 190 239 204 190 189 185 178 175 173 180 188 189
253 284 289 290 290 289 287 283 282 278 271 270 268 260 252 249 246 243 237 232 226 220 214 198 193 193 203 214 213 195 186 178 171 177 180 178 189 191
297 293 295 295 292 291 290 286 283 281 272 268 265 259 251 246 247 244 239 236 227 217 212 205 205 206 207 198 185 193 186 174 176 181 178 160 142 151
344 330 320 315 310 304 298 291 285 281 275 270 264 256 253 245 246 244 238 231 229 228 224 221 215 189 149 131 146 175 186 187 177 175 168 159 158 165
352 345 340 337 335 328 321 313 304 296 289 278 273 267 260 251 247 243 237 232 231 230 230 216 173 169 177 191 193 183 172 163 167 169 171 168 169 185
6 4 3 358 355 351 345 340 336 332 325 312 295 280 266 259 255 248 240 234 231 229 222 204 187 191 196 193 188 182 177 172 164 164 186 200 199 192
Height
1481 1481 1481 1481 1482 1483 1484 1486 1487 1486 1486 1488 1490 1492 1494 1496 1498 1500 1503 1506 1509 1512 1515 1517 1520 1523 1525 1528 1530 1533 1535 1537 1539 1540 1542 1544 1545 1546
1478 1478 1478 1478 1478 1479 1480 1481 1482 1483 1483 1483 1485 1487 1489 1491 1493 1495 1497 1500 1502 1506 1509 1512 1515 1518 1520 1523 1526 1528 1530 1533 1535 1537 1538 1540 1542 1543
1475 1475 1475 1475 1475 1475 1476 1476 1477 1478 1478 1479 1481 1482 1484 1485 1487 1489 1491 1494 1496 1499 1502 1505 1508 1512 1515 1518 1521 1523 1525 1528 1530 1532 1534 1536 1538 1539
1472 1472 1472 1471 1471 1471 1471 1472 1472 1473 1474 1474 1475 1477 1479 1480 1482 1483 1485 1487 1490 1493 1496 1499 1502 1505 1508 1511 1515 1517 1520 1523 1525 1528 1530 1532 1534 1536
1470 1469 1468 1468 1468 1467 1467 1468 1468 1469 1470 1470 1470 1472 1473 1475 1476 1477 1479 1481 1483 1486 1489 1492 1496 1499 1502 1505 1508 1511 1514 1517 1519 1522 1525 1527 1529 1531
1467 1466 1465 1465 1464 1464 1464 1464 1464 1465 1465 1465 1466 1467 1468 1470 1471 1472 1473 1475 1477 1480 1482 1485 1489 1492 1495 1498 1501 1504 1507 1510 1513 1516 1519 1521 1524 1526
1465 1463 1462 1462 1461 1461 1460 1460 1460 1460 1461 1461 1461 1462 1463 1464 1466 1467 1468 1470 1471 1474 1476 1478 1481 1484 1487 1490 1494 1497 1500 1504 1507 1510 1513 1515 1518 1521
1462 1461 1460 1459 1458 1457 1457 1457 1457 1456 1456 1456 1457 1457 1458 1460 1461 1462 1463 1464 1465 1468 1470 1471 1474 1476 1479 1483 1486 1490 1493 1497 1500 1503 1506 1509 1512 1515
1461 1459 1457 1456 1455 1454 1453 1453 1452 1452 1452 1452 1452 1452 1453 1455 1456 1457 1458 1458 1460 1462 1464 1465 1467 1469 1472 1475 1479 1482 1486 1489 1493 1496 1499 1502 1505 1508
1459 1457 1455 1453 1452 1451 1449 1449 1448 1448 1448 1447 1447 1448 1448 1449 1450 1451 1452 1453 1455 1456 1458 1459 1461 1463 1466 1468 1471 1475 1478 1482 1485 1488 1492 1495 1499 1502
1458 1455 1453 1451 1450 1448 1447 1445 1444 1443 1443 1443 1443 1443 1443 1444 1445 1446 1447 1448 1448 1449 1452 1454 1455 1457 1460 1462 1464 1467 1470 1473 1477 1480 1484 1488 1492 1495
1456 1454 1452 1449 1448 1446 1444 1442 1441 1440 1439 1438 1438 1438 1438 1438 1439 1440 1441 1442 1443 1444 1446 1448 1450 1452 1454 1455 1457 1460 1463 1466 1469 1473 1476 1480 1484 1488
1453 1451 1450 1448 1445 1444 1442 1440 1438 1437 1435 1434 1433 1433 1433 1433 1434 1435 1436 1437 1438 1439 1441 1443 1444 1446 1448 1449 1451 1454 1456 1459 1462 1465 1469 1473 1477 1481
1451 1449 1447 1445 1443 1441 1439 1437 1436 1434 1432 1431 1430 1429 1429 1429 1429 1430 1431 1432 1433 1434 1436 1438 1439 1440 1442 1444 1445 1448 1450 1453 1455 1459 1462 1466 1470 1474
1449 1447 1445 1443 1441 1439 1437 1435 1433 1432 1430 1428 1427 1426 1426 1426 1426 1426 1426 1427 1428 1429 1430 1432 1434 1435 1437 1438 1440 1443 1445 1447 1450 1453 1456 1459 1463 1467
1446 1444 1443 1441 1439 1437 1435 1433 1431 1429 1428 1426 1425 1424 1423 1423 1423 1423 1422 1423 1423 1424 1425 1427 1429 1430 1432 1433 1436 1437 1439 1441 1444 1447 1451 1454 1458 1462
1443 1442 1440 1438 1436 1434 1433 1431 1429 1427 1426 1424 1423 1422 1421 1420 1420 1420 1419 1419 1419 1420 1421 1422 1424 1426 1427 1429 1431 1432 1434 1436 1439 1442 1446 1449 1453 1457
1441 1439 1437 1436 1434 1432 1430 1428 1427 1425 1423 1422 1420 1419 1418 1418 1417 1416 1416 1416 1415 1415 1416 1418 1419 1421 1423 1424 1426 1427 1429 1432 1435 1437 1440 1443 1447 1451
1438 1436 1435 1433 1431 1429 1428 1426 1424 1423 1421 1419 1418 1417 1416 1415 1414 1413 1412 1412 1412 1412 1412 1413 1415 1416 1417 1418 1420 1423 1425 1427 1430 1433 1436 1439 1442 1447
1435 1434 1432 1430 1429 1427 1425 1423 1422 1420 1419 1417 1416 1414 1413 1412 1411 1410 1409 1409 1408 1409 1409 1410 1410 1411 1413 1415 1416 1418 1421 1423 1425 1429 1432 1435 1439 1444
1432 1431 1429 1427 1425 1424 1422 1421 1419 1417 1416 1414 1413 1412 1410 1409 1408 1407 1407 1406 1406 1405 1405 1406 1407 1409 1410 1412 1414 1415 1417 1420 1422 1425 1428 1432 1435 1438
1429 1428 1426 1424 1422 1421 1419 1417 1416 1414 1412 1411 1410 1408 1407 1406 1405 1404 1403 1403 1402 1402 1402 1403 1404 1405 1406 1408 1409 1411 1414 1417 1419 1422 1425 1428 1430 1433
1427 1425 1423 1421 1419 1417 1415 1414 1412 1410 1409 1407 1406 1404 1403 1402 1401 1400 1400 1399 1399 1399 1399 1399 1400 1401 1402 1404 1405 1408 1410 1412 1415 1418 1421 1424 1427 1430